period_start,C,m1,H,J0,J1,J2,J3,J4,J5,JA,JB,JC,JD,JJ,JK,JN,#
2015-02-27 00:00:07,0.15,1.85,0.00,20.82,26.32,29.24,4.93,28.02,1018.03,2034.47,2706.61,2811.83,3046.76,350.05,350.74,9.44,0000 0000 0000 0000 000000
2015-02-27 00:05:08,0.23,1.85,0.00,20.78,26.32,29.27,4.87,28.07,1018.03,2034.69,2704.93,2810.65,3045.47,349.68,350.31,9.47,0000 0000 0000 0000 000000
2015-02-27 00:10:09,0.13,1.86,0.00,20.78,26.32,29.25,4.80,27.88,1018.07,2034.68,2703.29,2809.41,3044.11,349.89,350.74,9.50,0000 0000 0000 0000 000000
2015-02-27 00:15:11,0.17,1.86,0.00,20.76,26.32,29.19,4.92,28.03,1018.08,2034.65,2701.55,2808.16,3042.72,349.89,350.65,9.53,0000 0000 0000 0000 000000
2015-02-27 00:20:12,0.19,1.87,0.00,20.77,26.31,29.22,4.91,28.00,1018.07,2034.86,2699.95,2807.00,3041.49,349.99,350.77,9.56,0000 0000 0000 0000 000000
2015-02-27 00:25:13,0.16,1.87,0.00,20.78,26.30,29.29,4.95,28.11,1018.07,2034.85,2698.25,2805.74,3040.13,350.94,351.50,9.58,0000 0000 0000 0000 000000
2015-02-27 00:30:14,0.17,1.88,0.00,20.78,26.30,29.30,4.87,28.07,1018.07,2034.71,2696.54,2804.46,3038.65,349.56,350.62,9.61,0000 0000 0000 0000 000000
2015-02-27 00:35:15,0.15,1.88,0.00,20.74,26.30,29.19,4.87,28.03,1018.07,2034.69,2694.80,2803.24,3037.29,350.32,350.69,9.64,0000 0000 0000 0000 000000
2015-02-27 00:40:16,0.16,1.89,0.00,20.76,26.30,29.24,4.81,28.04,1018.06,2034.66,2693.10,2801.94,3035.94,349.81,350.48,9.67,0000 0000 0000 0000 000000
2015-02-27 00:45:17,0.20,1.89,0.00,20.80,26.30,29.14,4.81,28.12,1018.05,2034.74,2691.49,2800.76,3034.59,349.64,350.45,9.70,0000 0000 0000 0000 000000
2015-02-27 00:50:19,0.16,1.90,0.00,20.78,26.29,29.22,4.90,28.09,1018.07,2034.80,2689.83,2799.57,3033.31,349.97,350.78,9.73,0000 0000 0000 0000 000000
2015-02-27 00:55:20,0.16,1.90,0.00,20.74,26.28,29.22,4.92,28.23,1018.05,2034.91,2688.31,2798.43,3031.97,350.40,350.98,9.76,0000 0000 0000 0000 000000
2015-02-27 01:00:21,0.17,1.91,0.00,20.75,26.27,29.19,4.82,27.98,1018.07,2034.93,2686.68,2797.17,3030.64,349.91,350.84,9.79,0000 0000 0000 0000 000000
2015-02-27 01:05:23,0.16,1.91,0.00,20.73,26.27,29.18,4.89,27.96,1018.08,2034.97,2685.12,2796.00,3029.46,350.14,350.92,9.82,0000 0000 0000 0000 000000
2015-02-27 01:10:24,0.17,1.92,0.00,20.74,26.27,29.16,4.81,28.05,1018.06,2034.98,2683.53,2794.82,3028.11,349.71,350.60,9.85,0000 0000 0000 0000 000000
2015-02-27 01:15:25,0.18,1.92,0.00,20.71,26.27,29.22,4.93,28.08,1018.03,2034.97,2681.83,2793.61,3026.76,350.35,351.03,9.88,0000 0000 0000 0000 000000
2015-02-27 01:20:27,0.16,1.93,0.00,20.72,26.27,29.13,4.86,27.94,1017.87,2034.95,2680.19,2792.42,3025.42,350.18,351.10,9.91,0000 0000 0000 0000 000000
2015-02-27 01:25:28,0.16,1.93,0.00,20.72,26.26,29.10,4.91,28.05,1017.66,2034.96,2678.51,2791.21,3024.10,350.23,351.00,9.94,0000 0000 0000 0000 000000
2015-02-27 01:30:29,0.17,1.94,0.00,20.74,26.25,29.18,4.85,27.90,1017.66,2034.96,2676.78,2789.98,3022.76,350.57,351.18,9.97,0000 0000 0000 0000 000000
2015-02-27 01:35:30,0.17,1.94,0.00,20.78,26.25,29.23,4.89,28.07,1017.78,2034.97,2675.22,2788.77,3021.49,349.77,350.51,9.99,0000 0000 0000 0000 000000
2015-02-27 01:40:31,0.17,1.95,0.00,20.75,26.25,29.26,4.84,28.03,1018.01,2034.95,2673.43,2787.44,3020.01,349.86,350.68,10.02,0000 0000 0000 0000 000000
2015-02-27 01:45:33,0.15,1.95,0.00,20.79,26.25,29.25,4.91,28.16,1018.02,2034.97,2671.87,2786.30,3018.79,350.41,350.94,10.05,0000 0000 0000 0000 000000
2015-02-27 01:50:34,0.15,1.96,0.00,20.75,26.25,29.22,4.84,28.00,1017.85,2034.96,2670.36,2785.24,3017.53,350.27,351.17,10.08,0000 0000 0000 0000 000000
2015-02-27 01:55:35,0.16,1.96,0.00,20.74,26.25,29.06,4.86,27.94,1017.71,2034.97,2668.73,2784.01,3016.22,350.15,350.73,10.11,0000 0000 0000 0000 000000
2015-02-27 02:00:36,0.19,1.97,0.00,20.74,26.25,29.12,4.81,28.01,1017.62,2034.95,2667.04,2782.72,3014.85,349.51,350.21,10.14,0000 0000 0000 0000 000000
2015-02-27 02:05:38,0.16,1.97,0.00,20.79,26.25,29.26,4.90,28.02,1017.62,2034.97,2665.45,2781.56,3013.61,350.27,350.96,10.17,0000 0000 0000 0000 000000
2015-02-27 02:10:39,0.16,1.98,0.00,20.79,26.24,29.26,4.87,28.02,1017.62,2034.98,2663.80,2780.35,3012.32,349.95,350.76,10.20,0000 0000 0000 0000 000000
2015-02-27 02:15:41,0.14,1.98,0.00,20.79,26.24,29.21,4.83,28.02,1017.62,2034.99,2662.21,2779.21,3011.01,350.05,350.67,10.23,0000 0000 0000 0000 000000
2015-02-27 02:20:42,0.17,1.99,0.00,20.78,26.23,29.11,4.81,28.02,1017.60,2034.98,2660.59,2778.00,3009.70,349.38,350.16,10.26,0000 0000 0000 0000 000000
2015-02-27 02:25:44,0.17,1.99,0.00,20.79,26.23,29.16,4.79,28.07,1017.60,2034.98,2658.93,2776.78,3008.49,349.71,350.50,10.29,0000 0000 0000 0000 000000
2015-02-27 02:30:45,0.16,2.00,0.00,20.81,26.23,29.15,4.85,28.04,1017.63,2034.98,2657.41,2775.56,3007.23,349.59,350.34,10.32,0000 0000 0000 0000 000000
2015-02-27 02:35:46,0.15,2.00,0.00,20.77,26.23,29.18,4.80,27.91,1017.73,2034.98,2655.79,2774.41,3006.00,349.72,350.37,10.35,0000 0000 0000 0000 000000
2015-02-27 02:40:48,0.17,2.01,0.00,20.76,26.23,29.18,4.85,28.17,1017.76,2034.98,2654.07,2773.18,3004.65,349.60,350.47,10.38,0000 0000 0000 0000 000000
2015-02-27 02:45:49,0.14,2.01,0.00,20.80,26.23,29.24,4.91,28.03,1017.82,2034.98,2652.55,2772.03,3003.42,349.99,350.66,10.40,0000 0000 0000 0000 000000
2015-02-27 02:50:51,0.18,2.02,0.00,20.79,26.24,29.21,4.83,27.95,1017.68,2034.98,2650.93,2770.76,3002.06,349.76,350.60,10.43,0000 0000 0000 0000 000000
2015-02-27 02:55:52,0.17,2.02,0.00,20.84,26.24,29.24,4.82,27.90,1017.73,2034.98,2649.35,2769.62,3000.73,349.94,350.57,10.46,0000 0000 0000 0000 000000
2015-02-27 03:00:53,0.16,2.03,0.00,20.81,26.25,29.21,4.89,28.00,1017.69,2034.96,2647.64,2768.38,2999.44,350.13,350.84,10.49,0000 0000 0000 0000 000000
2015-02-27 03:05:54,0.15,2.03,0.00,20.82,26.25,29.24,4.84,28.02,1017.64,2034.95,2645.99,2767.22,2998.13,350.26,350.68,10.52,0000 0000 0000 0000 000000
2015-02-27 03:10:55,0.17,2.04,0.00,20.85,26.25,29.23,4.93,28.01,1017.61,2034.96,2644.46,2765.93,2996.76,349.88,350.29,10.55,0000 0000 0000 0000 000000
2015-02-27 03:15:56,0.16,2.04,0.00,20.84,26.25,29.29,4.91,28.10,1017.62,2034.98,2642.84,2764.81,2995.59,349.95,350.53,10.58,0000 0000 0000 0000 000000
2015-02-27 03:20:58,0.16,2.05,0.00,20.85,26.25,29.25,4.95,27.94,1017.64,2034.97,2641.32,2763.61,2994.30,350.62,351.01,10.61,0000 0000 0000 0000 000000
2015-02-27 03:25:59,0.16,2.05,0.00,20.89,26.25,29.23,4.89,27.98,1017.66,2034.98,2639.77,2762.53,2993.00,349.95,350.41,10.64,0000 0000 0000 0000 000000
2015-02-27 03:31:00,0.16,2.06,0.00,20.90,26.27,29.27,4.78,27.89,1017.64,2034.96,2638.18,2761.30,2991.72,350.05,350.56,10.67,0000 0000 0000 0000 000000
2015-02-27 03:36:02,0.16,2.06,0.00,20.91,26.27,29.29,4.86,27.93,1017.84,2034.96,2636.61,2760.12,2990.36,349.76,350.20,10.70,0000 0000 0000 0000 000000
2015-02-27 03:41:03,0.17,2.07,0.00,20.90,26.27,29.26,4.78,27.97,1017.98,2034.91,2634.92,2758.89,2989.01,349.75,350.17,10.73,0000 0000 0000 0000 000000
2015-02-27 03:46:04,0.16,2.07,0.00,20.91,26.28,29.27,4.91,28.06,1017.91,2034.93,2633.45,2757.78,2987.81,350.60,351.13,10.76,0000 0000 0000 0000 000000
2015-02-27 03:51:06,0.16,2.08,0.00,20.92,26.30,29.30,4.90,28.12,1017.84,2034.90,2631.84,2756.61,2986.54,350.43,350.83,10.79,0000 0000 0000 0000 000000
2015-02-27 03:56:07,0.12,2.08,0.00,20.94,26.30,29.27,4.84,27.98,1017.93,2034.66,2630.19,2755.33,2985.14,349.68,350.32,10.81,0000 0000 0000 0000 000000
2015-02-27 04:01:08,0.15,2.09,0.00,20.96,26.31,29.22,4.84,27.93,1018.01,2034.53,2628.61,2754.13,2983.81,350.08,350.55,10.84,0000 0000 0000 0000 000000
2015-02-27 04:06:10,0.17,2.09,0.00,21.00,26.32,29.26,4.92,28.05,1018.00,2034.54,2627.04,2752.94,2982.51,350.20,350.51,10.87,0000 0000 0000 0000 000000
2015-02-27 04:11:11,0.10,2.09,0.00,21.04,26.32,29.32,4.94,28.23,1017.99,2034.17,2625.39,2751.72,2981.16,350.01,350.48,10.90,0000 0000 0000 0000 000000
2015-02-27 04:16:13,0.17,2.10,0.00,21.06,26.34,29.36,4.83,28.18,1018.06,2034.13,2623.78,2750.62,2979.81,350.19,350.83,10.93,0000 0000 0000 0000 000000
2015-02-27 04:21:14,0.15,2.10,0.00,21.09,26.35,29.38,4.93,28.13,1018.07,2034.10,2622.40,2749.50,2978.55,350.09,350.69,10.96,0000 0000 0000 0000 000000
2015-02-27 04:26:15,0.16,2.11,0.00,21.12,26.35,29.45,4.95,28.08,1018.08,2034.16,2620.88,2748.36,2977.31,350.56,350.61,10.99,0000 0000 0000 0000 000000
2015-02-27 04:31:16,0.15,2.11,0.00,21.10,26.37,29.42,4.78,27.92,1018.08,2034.10,2619.30,2747.13,2975.89,349.88,350.31,11.02,0000 0000 0000 0000 000000
2015-02-27 04:36:18,0.18,2.12,0.00,21.11,26.37,29.48,4.96,27.98,1018.07,2034.03,2617.62,2745.83,2974.49,350.64,350.99,11.05,0000 0000 0000 0000 000000
2015-02-27 04:41:19,0.17,2.12,0.00,21.15,26.39,29.49,4.80,27.96,1018.07,2034.01,2615.94,2744.56,2973.12,349.64,350.08,11.08,0000 0000 0000 0000 000000
2015-02-27 04:46:20,0.16,2.13,0.00,21.14,26.40,29.49,4.85,27.93,1018.07,2034.00,2614.40,2743.46,2971.78,349.91,350.53,11.11,0000 0000 0000 0000 000000
2015-02-27 04:51:21,0.16,2.13,0.00,21.16,26.41,29.53,4.89,27.99,1018.08,2034.00,2612.81,2742.23,2970.50,349.95,350.25,11.14,0000 0000 0000 0000 000000
2015-02-27 04:56:22,0.15,2.14,0.00,21.15,26.42,29.58,4.90,27.96,1018.09,2034.00,2611.24,2740.99,2969.18,350.56,351.08,11.17,0000 0000 0000 0000 000000
2015-02-27 05:01:24,0.20,2.14,0.00,21.18,26.45,29.53,4.88,28.03,1018.12,2034.00,2609.62,2739.77,2967.80,350.34,350.77,11.20,0000 0000 0000 0000 000000
2015-02-27 05:06:25,0.16,2.15,0.00,21.16,26.45,29.44,4.86,27.97,1018.13,2034.00,2608.03,2738.62,2966.57,350.14,350.37,11.22,0000 0000 0000 0000 000000
2015-02-27 05:11:27,0.16,2.15,0.00,21.15,26.47,29.45,4.86,27.78,1018.12,2033.98,2606.46,2737.43,2965.21,349.75,350.38,11.25,0000 0000 0000 0000 000000
2015-02-27 05:16:28,0.17,2.16,0.00,21.15,26.49,29.46,4.75,27.68,1018.11,2033.98,2604.80,2736.24,2963.78,349.68,350.08,11.28,0000 0000 0000 0000 000000
2015-02-27 05:21:29,0.16,2.16,0.00,21.17,26.50,29.39,4.77,27.70,1018.10,2033.97,2603.24,2734.94,2962.51,349.59,349.91,11.31,0000 0000 0000 0000 000000
2015-02-27 05:26:30,0.18,2.17,0.00,21.18,26.52,29.41,4.88,28.04,1018.09,2033.90,2601.57,2733.64,2961.08,349.61,349.77,11.34,0000 0000 0000 0000 000000
2015-02-27 05:31:31,0.16,2.17,0.00,21.25,26.52,29.42,4.79,27.98,1018.08,2033.83,2599.90,2732.45,2959.74,349.57,350.09,11.37,0000 0000 0000 0000 000000
2015-02-27 05:36:33,0.10,2.18,0.00,21.25,26.55,29.47,4.88,28.02,1018.09,2033.56,2598.32,2731.23,2958.44,350.09,350.48,11.40,0000 0000 0000 0000 000000
2015-02-27 05:41:34,0.13,2.18,0.00,21.24,26.56,29.45,4.82,27.98,1018.08,2033.21,2596.61,2729.92,2956.99,349.87,350.29,11.43,0000 0000 0000 0000 000000
2015-02-27 05:46:36,0.15,2.18,0.00,21.29,26.57,29.54,4.84,28.02,1018.08,2033.11,2595.07,2728.78,2955.73,350.26,350.47,11.46,0000 0000 0000 0000 000000
2015-02-27 05:51:37,0.17,2.19,0.00,21.31,26.58,29.56,4.86,27.96,1018.08,2033.04,2593.48,2727.58,2954.44,350.00,350.29,11.49,0000 0000 0000 0000 000000
2015-02-27 05:56:38,0.16,2.19,0.00,21.33,26.60,29.59,4.82,27.99,1018.08,2033.03,2591.83,2726.43,2953.08,349.80,349.95,11.52,0000 0000 0000 0000 000000
2015-02-27 06:01:39,0.17,2.20,0.00,21.36,26.61,29.65,4.82,27.82,1018.08,2033.01,2590.22,2725.23,2951.76,349.92,350.31,11.55,0000 0000 0000 0000 000000
2015-02-27 06:06:41,0.18,2.20,0.00,21.38,26.62,29.68,4.76,27.82,1018.08,2033.00,2588.63,2723.90,2950.46,349.27,349.40,11.58,0000 0000 0000 0000 000000
2015-02-27 06:11:42,0.17,2.21,0.00,21.40,26.64,29.70,4.79,27.73,1018.08,2033.00,2586.98,2722.72,2949.07,349.96,350.07,11.61,0000 0000 0000 0000 000000
2015-02-27 06:16:44,0.17,2.21,0.00,21.38,26.65,29.74,4.82,27.76,1018.09,2033.00,2585.47,2721.57,2947.81,350.04,350.23,11.63,0000 0000 0000 0000 000000
2015-02-27 06:21:45,0.17,2.22,0.00,21.40,26.67,29.73,4.89,27.78,1018.11,2033.00,2583.85,2720.43,2946.57,349.72,349.88,11.66,0000 0000 0000 0000 000000
2015-02-27 06:26:46,0.16,2.22,0.00,21.41,26.68,29.70,4.90,27.72,1018.16,2033.00,2582.23,2719.17,2945.23,350.06,350.15,11.69,0000 0000 0000 0000 000000
2015-02-27 06:31:48,0.18,2.23,0.00,21.40,26.70,29.73,4.77,27.72,1018.19,2033.00,2580.60,2717.85,2943.87,349.82,350.00,11.72,0000 0000 0000 0000 000000
2015-02-27 06:36:49,0.18,2.23,0.00,21.44,26.71,29.69,4.94,27.91,1018.14,2032.99,2578.96,2716.66,2942.59,350.29,350.38,11.75,0000 0000 0000 0000 000000
2015-02-27 06:41:50,0.17,2.24,0.00,21.43,26.72,29.77,4.88,28.02,1018.14,2032.99,2577.29,2715.39,2941.22,350.19,350.38,11.78,0000 0000 0000 0000 000000
2015-02-27 06:46:52,0.16,2.25,0.00,21.45,26.74,29.77,4.83,27.77,1018.33,2032.98,2575.73,2714.27,2939.94,349.85,349.95,11.81,0000 0000 0000 0000 000000
2015-02-27 06:51:53,0.16,2.25,0.00,21.37,26.75,29.68,4.79,27.98,1018.45,2032.96,2574.20,2713.13,2938.68,349.40,349.63,11.84,0000 0000 0000 0000 000000
2015-02-27 06:56:54,0.17,2.26,0.00,21.36,26.76,29.59,4.83,27.92,1018.52,2032.90,2572.57,2711.89,2937.42,350.14,350.16,11.87,0000 0000 0000 0000 000000
2015-02-27 07:01:55,0.12,2.26,0.00,21.40,26.77,29.65,4.83,27.69,1018.41,2032.66,2570.93,2710.62,2936.03,350.20,350.29,11.90,0000 0000 0000 0000 000000
2015-02-27 07:06:56,0.15,2.26,0.00,21.39,26.79,29.64,4.86,27.88,1018.46,2032.58,2569.47,2709.55,2934.74,349.83,350.05,11.93,0000 0000 0000 0000 000000
2015-02-27 07:11:58,0.14,2.27,0.00,21.39,26.80,29.60,4.87,27.73,1018.54,2032.38,2567.80,2708.39,2933.49,350.11,350.42,11.96,0000 0000 0000 0000 000000
2015-02-27 07:16:59,0.16,2.27,0.00,21.41,26.80,29.61,4.80,27.83,1018.56,2032.35,2566.28,2707.24,2932.26,349.61,349.97,11.99,0000 0000 0000 0000 000000
2015-02-27 07:22:00,0.16,2.28,0.00,21.39,26.82,29.55,4.83,27.70,1018.56,2032.27,2564.75,2706.15,2931.02,349.76,350.00,12.02,0000 0000 0000 0000 000000
2015-02-27 07:27:01,0.13,2.28,0.00,21.41,26.82,29.54,4.84,27.85,1018.57,2032.10,2563.16,2704.92,2929.66,349.88,350.02,12.04,0000 0000 0000 0000 000000
2015-02-27 07:32:03,0.17,2.29,0.00,21.43,26.83,29.54,4.79,27.82,1018.57,2032.03,2561.57,2703.72,2928.37,349.22,349.34,12.07,0000 0000 0000 0000 000000
2015-02-27 07:37:04,0.17,2.29,0.00,21.39,26.85,29.49,4.83,27.76,1018.57,2032.01,2559.91,2702.57,2927.02,350.02,350.25,12.10,0000 0000 0000 0000 000000
2015-02-27 07:42:05,0.16,2.30,0.00,21.41,26.85,29.52,4.82,27.96,1018.57,2032.00,2558.56,2701.38,2925.70,349.93,350.02,12.13,0000 0000 0000 0000 000000
2015-02-27 07:47:06,0.15,2.30,0.00,21.42,26.85,29.50,4.86,27.88,1018.57,2032.00,2557.10,2700.34,2924.53,350.11,350.34,12.16,0000 0000 0000 0000 000000
2015-02-27 07:52:08,0.16,2.31,0.00,21.42,26.87,29.45,4.85,27.89,1018.57,2032.00,2555.60,2699.21,2923.30,350.05,350.32,12.19,0000 0000 0000 0000 000000
2015-02-27 07:57:09,0.16,2.31,0.00,21.42,26.87,29.44,4.80,27.80,1018.57,2032.00,2554.02,2698.07,2922.03,350.23,350.49,12.22,0000 0000 0000 0000 000000
2015-02-27 08:02:11,0.16,2.32,0.00,21.39,26.87,29.42,4.84,27.84,1018.57,2032.00,2552.54,2696.98,2920.80,349.85,350.20,12.25,0000 0000 0000 0000 000000
2015-02-27 08:07:12,0.17,2.32,0.00,21.42,26.88,29.44,4.84,27.82,1018.57,2032.00,2551.01,2695.86,2919.57,350.00,350.22,12.28,0000 0000 0000 0000 000000
2015-02-27 08:12:13,0.15,2.33,0.00,21.50,26.90,29.45,4.89,27.90,1018.57,2032.00,2549.43,2694.82,2918.29,350.14,350.04,12.31,0000 0000 0000 0000 000000
2015-02-27 08:17:14,0.18,2.33,0.00,21.49,26.90,29.49,4.83,27.66,1018.57,2032.00,2547.86,2693.62,2917.08,350.23,350.60,12.34,0000 0000 0000 0000 000000
2015-02-27 08:22:15,0.17,2.34,0.00,21.50,26.90,29.53,4.92,27.71,1018.57,2032.00,2546.32,2692.48,2915.74,350.24,350.35,12.37,0000 0000 0000 0000 000000
2015-02-27 08:27:16,0.17,2.34,0.00,21.54,26.91,29.57,4.94,27.86,1018.56,2032.00,2544.74,2691.33,2914.52,349.97,350.05,12.40,0000 0000 0000 0000 000000
2015-02-27 08:32:17,0.15,2.35,0.00,21.56,26.92,29.62,4.85,27.73,1018.55,2032.00,2543.27,2690.22,2913.25,350.09,350.13,12.43,0000 0000 0000 0000 000000
2015-02-27 08:37:19,0.17,2.35,0.00,21.50,26.92,29.64,4.88,28.15,1018.57,2031.99,2541.58,2689.05,2911.95,349.29,349.47,12.45,0000 0000 0000 0000 000000
2015-02-27 08:42:20,0.20,2.36,0.00,21.53,26.92,29.68,4.81,28.00,1018.57,2031.96,2539.83,2687.73,2910.46,350.11,350.20,12.48,0000 0000 0000 0000 000000
2015-02-27 08:47:21,0.14,2.36,0.00,21.56,26.93,29.70,4.84,27.96,1018.57,2031.97,2538.33,2686.75,2909.26,350.13,350.19,12.51,0000 0000 0000 0000 000000
2015-02-27 08:52:23,0.17,2.37,0.00,21.49,26.95,29.72,4.86,27.75,1018.57,2031.98,2536.78,2685.71,2908.05,350.27,350.49,12.54,0000 0000 0000 0000 000000
2015-02-27 08:57:24,0.16,2.37,0.00,21.48,26.95,29.65,4.89,27.79,1018.60,2031.98,2535.32,2684.60,2906.79,350.08,350.44,12.57,0000 0000 0000 0000 000000
2015-02-27 09:02:25,0.17,2.38,0.00,21.51,26.95,29.59,4.85,27.74,1018.64,2031.98,2533.75,2683.50,2905.55,349.68,349.78,12.60,0000 0000 0000 0000 000000
2015-02-27 09:07:27,0.15,2.38,0.00,21.52,26.96,29.63,4.91,27.70,1018.64,2031.98,2532.29,2682.44,2904.38,350.04,350.17,12.63,0000 0000 0000 0000 000000
2015-02-27 09:12:28,0.16,2.39,0.00,21.47,26.97,29.59,4.86,27.64,1018.62,2031.93,2530.65,2681.32,2903.06,350.18,350.36,12.66,0000 0000 0000 0000 000000
2015-02-27 09:17:30,0.14,2.39,0.00,21.50,26.97,29.58,4.84,27.75,1018.74,2031.89,2529.20,2680.14,2901.77,349.78,350.07,12.69,0000 0000 0000 0000 000000
2015-02-27 09:22:31,0.14,2.39,0.00,21.53,26.97,29.47,4.84,27.72,1018.66,2031.80,2527.76,2679.07,2900.60,350.07,350.08,12.72,0000 0000 0000 0000 000000
2015-02-27 09:27:32,0.16,2.40,0.00,21.55,26.98,29.44,4.82,27.69,1018.66,2031.79,2526.23,2677.98,2899.42,350.21,350.24,12.75,0000 0000 0000 0000 000000
2015-02-27 09:32:33,0.13,2.40,0.00,21.55,27.00,29.48,4.89,27.80,1018.81,2031.53,2524.64,2676.84,2898.16,350.47,350.58,12.78,0000 0000 0000 0000 000000
2015-02-27 09:37:34,0.14,2.41,0.00,21.55,27.00,29.45,4.90,27.81,1018.94,2031.45,2523.11,2675.73,2896.90,350.51,350.40,12.81,0000 0000 0000 0000 000000
2015-02-27 09:42:36,0.17,2.41,0.00,21.52,27.00,29.47,4.82,27.91,1018.99,2031.23,2521.47,2674.54,2895.65,350.12,350.21,12.84,0000 0000 0000 0000 000000
2015-02-27 09:47:37,0.13,2.42,0.00,21.55,27.01,29.50,4.91,27.74,1018.95,2031.13,2519.99,2673.48,2894.42,350.39,350.51,12.86,0000 0000 0000 0000 000000
2015-02-27 09:52:38,0.16,2.42,0.00,21.60,27.02,29.55,4.81,27.78,1019.00,2031.16,2518.51,2672.49,2893.30,349.84,350.11,12.89,0000 0000 0000 0000 000000
2015-02-27 09:57:39,0.14,2.43,0.00,21.64,27.02,29.54,4.83,27.84,1018.97,2031.08,2516.92,2671.38,2891.98,350.39,350.30,12.92,0000 0000 0000 0000 000000
2015-02-27 10:02:40,0.18,2.43,0.00,21.63,27.03,29.60,4.76,27.73,1018.95,2031.12,2515.52,2670.35,2890.75,349.73,349.72,12.95,0000 0000 0000 0000 000000
2015-02-27 10:07:41,0.15,2.44,0.00,21.62,27.05,29.58,4.81,27.81,1018.85,2031.02,2513.93,2669.12,2889.45,350.52,350.47,12.98,0000 0000 0000 0000 000000
2015-02-27 10:12:43,0.16,2.44,0.00,21.65,27.05,29.56,4.83,27.70,1018.69,2031.01,2512.42,2668.03,2888.22,349.75,349.68,13.01,0000 0000 0000 0000 000000
2015-02-27 10:17:44,0.18,2.45,0.00,21.63,27.06,29.51,4.93,27.75,1018.66,2031.01,2510.83,2666.88,2886.98,350.56,350.28,13.04,0000 0000 0000 0000 000000
2015-02-27 10:22:45,0.17,2.45,0.00,21.64,27.07,29.50,4.90,27.80,1018.63,2031.00,2509.36,2665.77,2885.77,349.82,349.93,13.07,0000 0000 0000 0000 000000
2015-02-27 10:27:46,0.17,2.45,0.00,21.64,27.07,29.54,4.81,27.56,1018.63,2031.00,2507.82,2664.68,2884.57,350.06,349.92,13.10,0000 0000 0000 0000 000000
2015-02-27 10:32:48,0.15,2.46,0.00,21.66,27.09,29.56,4.86,27.72,1018.61,2031.00,2506.36,2663.63,2883.28,349.96,349.92,13.13,0000 0000 0000 0000 000000
2015-02-27 10:37:49,0.17,2.46,0.00,21.64,27.10,29.48,4.87,27.72,1018.61,2031.00,2504.86,2662.51,2882.03,350.21,350.10,13.16,0000 0000 0000 0000 000000
2015-02-27 10:42:50,0.17,2.47,0.00,21.65,27.10,29.51,4.79,27.66,1018.61,2030.99,2503.26,2661.31,2880.73,348.96,348.93,13.19,0000 0000 0000 0000 000000
2015-02-27 10:47:52,0.16,2.47,0.00,21.68,27.12,29.52,4.80,27.66,1018.60,2030.99,2501.81,2660.42,2879.62,349.59,349.63,13.22,0000 0000 0000 0000 000000
2015-02-27 10:52:53,0.15,2.48,0.00,21.70,27.12,29.48,4.82,27.57,1018.59,2030.98,2500.26,2659.24,2878.55,349.85,349.53,13.25,0000 0000 0000 0000 000000
2015-02-27 10:57:54,0.17,2.48,0.00,21.70,27.13,29.40,4.87,27.98,1018.59,2030.98,2498.71,2658.10,2877.30,349.90,349.77,13.27,0000 0000 0000 0000 000000
2015-02-27 11:02:56,0.16,2.49,0.00,21.70,27.15,29.44,4.76,27.97,1018.63,2030.96,2497.15,2656.93,2875.94,350.07,350.12,13.30,0000 0000 0000 0000 000000
2015-02-27 11:07:57,0.17,2.49,0.00,21.68,27.15,29.48,4.82,27.76,1018.60,2030.92,2495.66,2655.90,2874.71,350.02,349.92,13.33,0000 0000 0000 0000 000000
2015-02-27 11:12:58,0.16,2.50,0.00,21.70,27.16,29.49,4.92,27.83,1018.59,2030.86,2494.28,2654.76,2873.46,350.40,350.34,13.36,0000 0000 0000 0000 000000
2015-02-27 11:18:00,0.14,2.50,0.00,21.72,27.17,29.50,4.83,27.91,1018.59,2030.71,2492.67,2653.60,2872.24,349.95,349.70,13.39,0000 0000 0000 0000 000000
2015-02-27 11:23:02,0.16,2.51,0.00,21.77,27.17,29.59,4.89,27.94,1018.58,2030.62,2491.16,2652.52,2871.02,350.34,350.23,13.42,0000 0000 0000 0000 000000
2015-02-27 11:28:03,0.11,2.51,0.00,21.78,27.18,29.71,4.86,27.99,1018.57,2030.39,2489.65,2651.47,2869.79,349.86,349.61,13.45,0000 0000 0000 0000 000000
2015-02-27 11:33:04,0.15,2.52,0.00,21.76,27.19,29.61,4.86,27.96,1018.57,2030.25,2488.08,2650.38,2868.53,349.97,349.76,13.48,0000 0000 0000 0000 000000
2015-02-27 11:38:06,0.15,2.52,0.00,21.80,27.20,29.65,4.88,28.04,1018.57,2030.11,2486.50,2649.19,2867.24,350.59,350.36,13.51,0000 0000 0000 0000 000000
2015-02-27 11:43:08,0.17,2.53,0.00,21.82,27.20,29.62,4.84,28.02,1018.57,2030.04,2484.79,2648.02,2865.83,350.28,349.70,13.54,0000 0000 0000 0000 000000
2015-02-27 11:48:09,0.15,2.53,0.00,21.76,27.20,29.56,4.84,27.94,1018.57,2030.07,2483.50,2646.97,2864.67,349.64,349.33,13.57,0000 0000 0000 0000 000000
2015-02-27 11:53:10,0.17,2.54,0.00,21.78,27.22,29.50,4.85,27.96,1018.57,2030.04,2481.93,2645.91,2863.50,350.05,349.92,13.60,0000 0000 0000 0000 000000
2015-02-27 11:58:12,0.17,2.54,0.00,21.81,27.22,29.56,4.87,27.87,1018.57,2030.02,2480.40,2644.78,2862.27,350.21,349.95,13.63,0000 0000 0000 0000 000000
2015-02-27 12:03:13,0.17,2.55,0.00,21.80,27.22,29.65,4.86,28.00,1018.58,2030.01,2478.84,2643.70,2861.00,350.25,350.02,13.66,0000 0000 0000 0000 000000
2015-02-27 12:08:14,0.16,2.55,0.00,21.82,27.22,29.73,4.81,28.03,1018.57,2030.01,2477.42,2642.65,2859.82,349.89,349.62,13.68,0000 0000 0000 0000 000000
2015-02-27 12:13:15,0.18,2.56,0.00,21.85,27.24,29.76,4.93,28.00,1018.57,2030.01,2475.81,2641.55,2858.57,350.53,350.22,13.71,0000 0000 0000 0000 000000
2015-02-27 12:18:16,0.16,2.56,0.00,21.82,27.25,29.87,4.84,28.06,1018.57,2030.01,2474.32,2640.48,2857.40,350.30,350.14,13.74,0000 0000 0000 0000 000000
2015-02-27 12:23:18,0.16,2.57,0.00,21.78,27.25,29.87,4.81,28.04,1018.57,2030.00,2472.77,2639.46,2856.22,350.24,350.02,13.77,0000 0000 0000 0000 000000
2015-02-27 12:28:19,0.16,2.57,0.00,21.81,27.25,29.83,4.79,28.08,1018.57,2030.00,2471.32,2638.39,2854.95,349.66,349.39,13.80,0000 0000 0000 0000 000000
2015-02-27 12:33:20,0.17,2.58,0.00,21.81,27.25,29.85,4.83,28.14,1018.57,2030.00,2469.75,2637.26,2853.74,349.79,349.40,13.83,0000 0000 0000 0000 000000
2015-02-27 12:38:21,0.16,2.58,0.00,21.85,27.25,29.96,4.78,28.08,1018.57,2030.00,2468.31,2636.23,2852.60,349.90,349.69,13.86,0000 0000 0000 0000 000000
2015-02-27 12:43:23,0.17,2.59,0.00,21.81,27.25,29.91,4.82,28.19,1018.57,2030.00,2466.76,2635.19,2851.43,350.04,349.91,13.89,0000 0000 0000 0000 000000
2015-02-27 12:48:24,0.15,2.59,0.00,21.81,27.25,30.00,4.74,28.07,1018.57,2030.00,2465.31,2634.09,2850.22,349.35,349.30,13.92,0000 0000 0000 0000 000000
2015-02-27 12:53:25,0.16,2.60,0.00,21.79,27.26,30.04,4.85,28.02,1018.57,2030.00,2463.85,2633.04,2848.99,349.99,349.88,13.95,0000 0000 0000 0000 000000
2015-02-27 12:58:26,0.17,2.60,0.00,21.79,27.27,29.98,4.84,28.10,1018.57,2030.00,2462.31,2631.94,2847.82,350.28,349.93,13.98,0000 0000 0000 0000 000000